Wind_Speed
12 16 20 23 24 22 20 23 25 24 21 23 25 26 26 26 26 25 25 24 22 27 34 36 34 31 28 22 19 21 19 17 28 36 29 23 24 28 28 25 22 19 19 23 25 22 16 12 13 15 12 8 8 10 9 7 8 8 7 10 13 18 20 18 18 21 21 19 19 17 14 16 16 13 13 13 13 12 11 10 10 10 10 9 8 7
12 20 24 23 21 19 17 19 20 20 20 23 25 25 26 27 28 24 25 27 25 28 35 35 29 28 28 21 18 20 18 14 24 32 23 19 21 24 27 23 19 20 24 25 21 14 11 12 11 10 9 10 9 11 10 7 7 7 8 13 15 19 22 20 20 23 22 19 16 15 15 16 15 14 13 12 12 12 11 10 10 10 10 10 9 8
19 24 25 20 16 16 17 18 20 21 20 21 22 23 25 28 27 22 22 26 29 27 32 34 24 23 25 20 16 16 18 17 19 21 19 19 18 18 22 24 23 25 25 22 17 11 11 12 7 9 11 11 11 11 8 6 5 7 10 15 16 18 21 22 22 23 23 20 17 17 18 17 15 14 14 13 13 12 11 10 10 10 10 10 9 8
25 20 16 16 15 16 19 19 21 24 23 22 21 21 26 27 23 20 18 10 19 19 24 32 24 20 22 20 17 16 18 20 20 20 20 19 15 15 22 25 25 27 24 18 14 9 7 6 3 12 14 11 9 7 6 6 6 8 11 15 16 18 20 21 21 22 21 20 20 20 19 17 16 15 14 14 13 11 11 10 10 10 9 9 8 7
26 18 10 11 14 16 20 21 21 23 21 19 18 20 26 27 22 20 18 4 18 21 17 20 16 13 18 19 20 19 18 21 24 26 24 20 18 17 22 24 23 24 20 14 11 8 5 3 2 9 10 8 6 5 7 7 7 8 12 15 16 18 20 20 20 19 20 22 22 21 19 18 17 15 14 14 12 11 10 10 10 9 8 8 8 7
24 22 17 16 15 14 17 21 23 22 21 19 18 19 23 27 25 21 19 13 6 15 13 11 5 7 14 17 20 19 19 24 27 29 27 23 22 22 22 25 24 20 16 13 12 10 5 2 5 6 9 8 6 6 6 7 7 9 13 15 16 19 20 20 19 18 20 21 20 18 17 17 16 15 15 14 12 11 10 10 9 9 8 8 7 7
21 20 22 22 19 17 17 21 21 18 18 21 24 23 21 23 24 22 20 18 10 7 12 12 7 8 13 16 20 20 21 25 28 28 26 23 24 24 26 29 26 22 18 16 15 11 7 4 6 6 8 7 7 8 7 7 8 10 13 15 16 20 20 19 18 18 20 21 18 17 17 16 15 14 14 13 12 10 9 9 9 9 9 8 8 8
22 18 18 21 21 20 22 22 20 15 17 22 24 22 21 19 20 19 17 16 15 7 9 12 9 9 14 18 20 19 18 22 27 26 25 25 25 25 28 29 25 24 21 17 16 13 9 8 6 4 5 7 8 8 8 8 8 10 12 14 15 19 19 18 18 19 20 19 17 17 16 15 14 13 13 12 11 9 8 7 7 8 8 8 7 7
20 18 16 17 18 17 17 17 16 15 18 21 20 18 19 19 18 16 14 14 15 10 7 11 10 8 11 17 18 18 21 23 25 24 25 26 24 24 27 26 22 23 20 18 16 11 8 9 8 8 9 9 9 9 8 8 8 10 12 13 15 17 18 18 20 21 21 19 17 17 16 15 14 13 12 11 9 7 6 6 6 6 6 6 6 6
18 17 16 17 20 19 17 15 15 16 19 19 16 15 16 16 19 20 19 17 13 8 6 8 12 8 8 15 16 17 27 29 24 24 25 25 24 22 22 21 20 20 20 19 15 9 11 13 13 15 12 9 11 12 12 10 9 11 12 13 16 17 19 21 22 22 22 21 19 18 16 15 14 13 11 9 8 6 5 4 3 4 5 6 6 5
18 14 14 18 20 19 19 19 17 17 19 18 14 14 14 15 19 21 20 19 10 6 10 13 14 8 6 14 16 13 22 27 25 27 26 23 23 21 18 18 18 18 19 19 15 11 14 16 17 18 13 10 13 14 14 12 10 11 13 15 17 18 21 23 24 23 22 23 22 19 17 16 14 12 10 8 7 6 4 3 1 2 5 7 7 5
21 17 14 16 14 13 16 18 18 16 18 17 15 15 14 13 14 15 13 16 7 3 10 15 15 13 8 10 13 11 16 20 22 27 27 23 22 20 18 19 18 17 17 15 14 13 15 17 17 17 15 14 15 15 15 13 11 12 14 16 17 19 22 23 23 22 21 22 21 17 17 17 14 11 9 8 7 6 4 2 1 3 5 7 7 4
22 24 18 14 13 14 13 15 17 17 20 20 18 15 9 5 5 6 5 7 5 3 7 10 12 14 10 2 6 7 13 16 19 21 22 22 22 20 19 20 20 19 17 14 13 14 15 15 15 16 17 16 16 15 13 12 11 12 15 16 17 20 22 23 22 21 20 20 17 15 16 17 14 11 9 8 7 6 5 4 3 4 5 7 6 3
18 22 21 18 18 17 16 19 18 15 17 18 17 18 11 2 2 3 3 2 3 5 11 16 14 10 7 4 2 4 9 11 12 13 16 19 21 21 19 19 19 19 17 14 13 13 14 15 16 16 15 13 12 11 11 11 12 13 16 18 19 21 22 23 23 23 22 21 17 14 17 17 14 12 11 9 8 8 7 7 6 6 6 6 5 2
13 15 20 20 19 17 18 23 21 13 13 15 15 15 15 10 6 3 2 1 2 3 10 17 11 5 7 8 6 5 9 9 10 11 13 14 15 14 15 16 17 18 16 13 13 14 15 15 15 14 12 11 11 10 10 12 14 16 17 18 18 20 21 22 24 24 23 20 16 16 19 19 16 15 13 12 11 10 9 9 8 7 7 6 3 2
14 14 18 19 19 18 18 21 23 16 11 14 18 17 16 13 9 7 6 5 2 3 2 5 4 5 9 10 7 6 9 11 12 15 16 15 13 11 11 14 16 17 15 13 14 17 17 14 12 13 14 15 16 13 11 12 13 16 17 18 17 18 19 21 22 23 22 20 18 19 20 20 19 17 16 15 13 12 11 10 10 9 6 5 3 4
15 14 14 16 19 21 19 17 21 19 10 7 14 18 17 15 12 10 8 7 3 2 0 4 9 11 11 9 8 10 11 14 16 17 18 16 15 14 14 14 13 13 13 12 11 15 17 14 13 17 17 17 17 14 12 12 13 15 18 18 16 15 16 18 20 20 20 20 21 22 22 21 20 18 17 17 15 14 12 11 12 9 5 4 4 6
14 16 14 12 14 19 17 15 17 19 15 10 10 11 11 11 12 11 5 2 2 1 3 9 13 15 11 9 12 14 13 14 15 15 16 16 16 15 16 14 11 9 9 9 10 12 15 14 15 19 18 16 15 14 14 15 16 19 20 19 17 16 17 19 20 20 20 21 22 24 24 22 20 19 18 17 16 14 12 12 12 9 3 3 4 5
14 15 14 11 12 13 14 16 16 16 17 15 12 10 8 5 4 5 2 1 3 1 3 6 13 11 7 11 16 16 15 14 14 15 16 16 16 16 16 14 11 9 8 8 9 11 13 13 15 16 15 15 16 16 19 20 20 23 23 22 22 20 20 21 21 21 22 22 23 25 25 23 22 20 18 16 15 14 13 14 12 8 3 3 4 5
15 12 11 11 14 11 9 16 18 14 15 18 16 11 11 10 5 4 5 2 2 2 2 1 3 1 3 11 17 17 16 15 16 18 18 17 17 17 17 15 13 12 10 10 9 10 13 15 14 13 12 15 18 21 24 25 24 25 26 27 26 23 22 23 23 22 24 24 25 26 26 25 23 21 18 16 15 14 14 14 11 7 3 2 4 4
13 15 12 10 13 12 7 11 16 9 7 14 18 16 12 10 5 3 8 9 4 2 2 1 0 2 2 9 16 17 17 15 15 16 16 15 14 15 16 16 15 15 12 10 8 10 13 13 11 10 12 17 21 23 26 28 27 27 29 31 30 26 25 25 24 24 25 26 27 27 26 25 24 22 19 18 16 15 15 14 11 7 4 1 3 3
5 12 17 13 11 12 5 4 8 4 6 3 5 10 10 9 9 4 2 9 10 4 1 3 2 0 3 8 15 18 19 16 12 13 13 12 12 13 14 14 13 13 12 11 10 10 11 10 11 12 15 19 22 24 28 29 30 31 32 32 31 29 28 28 27 25 26 27 27 26 25 24 23 22 20 19 16 15 16 14 11 8 5 2 1 3
2 5 15 17 15 16 12 6 6 6 4 2 8 10 8 5 7 11 6 5 7 6 3 3 3 5 6 10 15 16 16 15 13 12 13 13 13 14 13 12 10 10 11 12 11 10 10 11 13 14 17 22 25 28 31 30 30 33 32 31 32 32 31 31 30 28 29 29 27 25 24 24 23 22 19 17 16 16 17 15 12 9 6 4 2 3
5 3 5 12 13 16 18 15 11 8 7 6 7 12 10 11 6 10 16 16 13 10 4 3 2 6 10 12 16 13 11 13 15 12 11 12 13 13 12 11 11 11 13 12 11 12 13 15 16 16 19 22 23 26 29 28 29 30 27 27 30 31 32 32 31 31 31 30 27 25 25 25 24 20 17 16 16 18 18 15 12 10 8 6 4 4
11 3 5 2 3 6 13 14 13 12 8 4 10 16 12 9 9 2 10 15 13 11 10 4 2 7 13 14 14 10 8 10 11 12 11 12 14 14 13 13 13 13 13 11 13 16 16 16 17 17 17 17 17 20 22 22 23 22 20 21 24 27 29 29 29 30 29 28 27 27 27 25 20 17 17 18 18 18 17 15 14 12 11 9 7 6
16 12 6 2 2 1 3 5 6 8 6 5 10 15 14 10 10 5 5 7 4 6 11 10 8 11 15 15 12 10 10 10 10 12 13 13 15 17 16 15 15 15 14 12 15 17 15 14 14 14 14 12 11 14 14 14 15 16 16 18 22 24 24 24 24 26 26 27 28 28 24 19 15 15 16 16 17 16 15 14 14 13 12 10 9 9
9 13 12 8 4 1 1 3 3 5 6 6 8 12 13 12 9 3 3 1 2 7 10 12 16 18 17 14 13 13 12 11 11 12 12 13 16 19 19 17 17 18 16 15 17 18 17 17 15 14 14 12 12 13 13 12 12 13 15 16 16 16 16 17 18 19 21 23 22 20 16 13 13 15 15 14 14 13 11 12 13 13 13 11 12 12
7 6 11 13 11 6 5 6 7 7 7 4 3 8 11 12 10 4 2 2 2 6 10 13 18 20 18 14 14 15 15 15 14 14 13 13 15 17 17 17 19 21 18 16 17 18 17 17 16 14 13 12 11 11 12 12 9 9 10 11 10 10 11 13 15 15 15 14 12 13 14 15 17 20 18 15 13 12 11 12 12 12 11 11 11 12
6 4 7 10 9 7 5 4 4 5 6 6 6 8 9 11 11 8 3 2 3 6 10 16 19 17 17 15 15 17 19 18 15 13 11 11 13 16 18 20 21 22 21 19 18 18 17 17 16 15 13 12 10 8 8 9 9 8 8 9 10 9 9 10 12 14 12 8 7 10 14 16 18 20 18 15 13 13 13 13 12 9 8 8 8 8
9 8 8 7 6 6 7 7 4 3 3 5 8 10 12 14 10 8 7 2 3 7 15 21 20 16 15 16 17 19 20 18 16 13 11 12 15 19 22 23 23 21 21 20 20 19 18 18 17 17 17 15 13 11 9 8 8 8 7 8 9 9 9 9 11 12 9 6 7 10 12 13 15 17 16 15 15 15 13 13 13 11 9 9 8 7
9 5 8 7 5 7 9 9 6 3 2 3 4 7 10 13 11 6 3 4 8 15 22 24 22 19 16 15 18 20 21 20 17 15 15 16 18 17 17 18 18 18 19 20 20 20 19 18 18 18 18 17 16 14 13 11 10 9 9 8 7 8 9 10 10 10 9 8 9 10 10 10 13 13 13 12 11 12 13 13 14 13 11 10 10 11
5 1 5 5 3 5 6 8 8 5 3 4 3 2 4 7 7 6 3 5 12 20 26 25 23 21 17 15 17 20 22 22 20 19 20 20 19 19 19 18 18 18 18 20 21 21 21 20 19 19 19 18 16 15 14 14 13 13 12 10 9 9 10 11 12 13 12 10 11 11 10 9 10 11 11 11 10 12 14 14 13 13 12 12 13 13
5 3 2 2 2 1 2 6 8 4 2 3 4 6 4 1 2 3 3 8 14 18 23 25 23 20 18 16 18 21 21 20 21 22 21 21 20 21 21 21 20 19 18 19 19 19 19 20 19 19 19 19 18 17 17 17 16 15 15 14 12 11 12 13 15 16 14 11 9 10 11 11 12 12 14 13 11 12 15 14 14 13 12 12 13 13
6 7 5 3 3 2 1 7 8 3 2 4 4 4 4 5 6 6 6 7 8 9 12 16 18 18 16 14 16 21 21 19 21 22 21 20 22 23 23 23 22 19 17 16 16 16 17 18 18 18 19 19 18 17 17 18 17 16 17 17 17 17 17 17 17 17 14 11 9 8 8 9 10 10 11 11 9 10 13 15 15 13 10 11 12 13
3 6 7 6 3 2 3 5 4 2 4 8 7 4 5 7 5 3 4 5 4 4 6 9 11 11 10 8 11 15 17 18 21 22 21 21 21 21 21 19 17 15 13 11 10 11 14 16 18 18 17 17 15 15 16 17 17 17 19 19 19 20 21 20 19 18 17 15 13 11 10 10 10 9 9 9 8 9 10 10 10 8 9 11 12 13
1 4 7 7 4 2 4 6 4 5 9 10 8 7 8 8 5 3 4 8 8 6 7 9 10 9 7 5 5 7 8 10 14 16 19 19 17 15 13 11 10 9 9 9 8 9 11 14 16 17 17 16 14 15 16 17 18 19 19 19 18 18 17 16 16 17 18 17 16 15 13 12 11 11 11 9 9 9 9 9 8 9 11 13 13 13
2 2 5 8 7 4 4 8 9 10 10 9 9 8 7 9 8 6 8 11 9 6 6 6 6 6 7 6 5 4 4 5 7 10 15 16 16 16 14 13 12 12 12 13 12 11 11 11 13 15 17 18 15 13 12 13 14 16 17 19 19 18 17 14 13 13 14 15 16 15 13 11 11 11 10 9 9 9 8 9 9 10 12 12 12 13
2 1 3 6 8 5 4 7 8 6 5 7 9 9 8 8 8 7 9 10 7 6 6 6 5 5 5 6 5 5 6 7 7 9 11 13 15 16 17 17 16 15 15 13 11 11 10 10 9 10 14 19 21 17 13 11 11 12 14 16 16 16 16 14 12 11 12 13 13 13 11 9 7 6 6 7 9 10 10 9 9 10 11 12 13 13
1 1 0 4 7 6 3 3 3 3 3 7 10 11 11 12 11 10 9 8 6 3 3 6 9 10 11 9 9 10 10 11 12 12 11 11 12 13 14 15 14 14 12 10 9 9 10 10 10 9 10 16 20 21 18 17 16 16 16 17 16 16 16 14 12 10 11 12 12 11 8 6 5 6 6 8 9 10 11 11 12 12 13 14 14 15
7 6 4 2 4 5 5 5 4 3 4 7 9 11 12 14 14 10 6 6 7 6 5 8 12 14 15 13 13 14 12 12 14 15 15 15 15 15 15 15 14 13 11 9 10 10 11 11 11 12 12 14 17 18 18 17 17 18 18 19 18 18 17 16 15 14 14 15 15 14 12 10 10 11 13 14 14 15 15 15 16 18 18 19 20 20
6 7 6 5 7 6 6 8 7 4 4 5 6 9 12 12 11 7 7 10 11 10 10 12 14 15 16 16 16 15 12 11 13 14 15 16 15 15 15 14 13 14 13 12 12 12 11 11 11 13 14 14 15 15 15 16 16 17 18 18 18 18 18 17 18 18 18 18 19 19 19 19 19 21 22 22 23 23 23 22 21 21 21 23 24 25
5 5 5 7 8 6 8 11 9 5 3 4 4 5 10 12 10 9 12 15 14 13 13 13 13 14 14 13 13 13 11 11 12 12 12 13 12 11 11 10 11 11 12 12 13 12 10 10 10 11 11 12 12 12 13 14 14 14 15 17 17 17 17 18 18 18 18 18 19 20 21 22 22 23 24 24 24 24 25 25 24 24 24 25 26 27
7 6 5 6 8 8 9 10 7 3 1 4 6 7 11 13 15 15 16 16 15 15 16 15 15 15 14 13 12 11 11 11 11 11 10 9 8 8 9 9 10 11 11 11 12 11 10 10 10 11 11 11 10 11 11 12 13 13 14 16 17 18 18 18 18 19 19 20 20 21 21 22 22 23 24 24 25 26 26 26 27 28 28 30 30 30
6 5 5 6 6 6 7 9 6 4 4 6 7 9 13 17 19 16 15 16 16 15 15 16 16 15 13 13 12 12 12 12 12 12 12 11 10 9 8 8 9 9 8 8 9 9 10 11 12 13 13 12 12 13 14 15 16 17 18 19 20 21 21 21 21 22 22 23 23 24 24 24 25 25 26 27 28 29 30 30 31 32 32 33 34 34
6 4 4 5 4 4 9 14 12 9 6 6 9 12 15 19 20 18 16 16 16 15 14 15 16 15 13 12 12 12 13 13 14 13 13 13 12 9 8 7 7 7 6 6 7 9 10 11 13 14 14 15 15 16 17 19 20 21 22 23 24 24 24 25 26 26 27 27 28 28 28 28 29 29 30 31 31 32 33 34 35 35 36 36 37 37
7 5 5 5 7 8 13 15 10 7 7 8 11 13 15 17 18 18 17 16 17 16 14 14 15 14 13 13 13 13 13 13 14 14 12 11 11 10 8 8 8 9 9 9 10 13 14 15 16 16 16 17 17 18 19 21 23 24 25 25 26 26 27 28 29 30 30 31 32 32 33 33 34 35 35 36 37 37 38 39 39 40 40 40 41 41
7 3 5 5 7 7 10 11 7 7 8 9 9 12 15 17 17 17 16 15 15 16 14 13 13 12 12 13 13 13 13 12 12 12 11 11 11 11 9 9 10 12 13 13 13 15 17 18 18 18 19 19 19 20 21 23 24 25 26 27 27 28 29 30 31 32 33 33 34 35 36 37 37 38 39 40 40 41 42 43 43 44 44 44 44 44
6 3 4 5 4 5 9 9 6 7 9 9 9 10 13 15 16 15 14 13 14 14 13 12 12 11 12 12 13 13 13 12 11 12 12 13 12 11 11 11 12 13 15 16 16 16 18 19 20 20 21 21 21 21 22 23 24 26 27 27 28 28 29 30 32 32 33 34 35 36 37 38 39 39 40 40 41 42 43 44 45 45 46 46 47 47
4 4 4 2 2 7 10 8 6 8 8 7 6 8 10 13 14 14 14 15 16 15 14 13 12 13 13 13 14 15 14 11 10 12 14 15 15 14 13 14 15 16 17 18 18 17 18 19 20 20 20 20 20 20 21 22 23 24 25 26 26 27 28 29 30 30 31 32 33 34 35 35 36 37 37 38 38 39 40 41 42 42 43 44 45 46
3 5 4 0 3 9 11 10 10 10 9 5 3 4 7 9 12 14 14 15 15 15 15 15 15 15 15 14 15 15 13 11 10 12 14 16 17 16 16 17 18 17 17 18 18 17 17 17 18 19 19 19 20 20 21 21 22 23 24 24 25 25 26 27 27 28 29 30 31 32 32 33 33 33 33 34 34 34 35 36 36 36 37 37 38 40
1 3 3 3 7 10 9 9 10 9 9 8 4 1 3 5 8 11 12 13 14 14 13 13 13 12 12 13 15 16 16 14 12 13 16 18 17 16 16 17 16 15 15 16 16 16 16 17 17 18 18 19 20 20 21 21 22 22 23 23 23 24 24 25 25 26 27 28 29 29 30 31 31 31 31 32 32 33 33 33 33 33 34 36 37 37
Wind_Direction
224 225 224 226 223 219 219 216 218 225 237 246 255 264 266 271 266 262 271 263 248 243 229 217 218 220 220 237 258 234 227 247 224 205 198 212 235 238 238 244 244 241 239 240 241 237 240 246 245 252 242 210 231 251 247 252 246 235 216 190 178 166 167 170 164 162 160 159 156 150 145 142 144 144 133 122 113 109 103 94 87 81 79 80 82 88
226 227 229 230 228 222 219 223 227 230 241 250 258 269 276 279 273 268 275 264 251 244 224 208 210 217 218 236 259 240 232 231 199 193 201 220 230 235 236 233 227 232 238 241 244 242 248 256 249 243 222 197 222 244 240 242 240 230 201 178 172 167 165 166 161 157 156 158 155 148 149 151 150 143 128 116 107 101 97 91 86 81 77 75 74 74
232 235 237 234 231 230 226 227 234 240 246 253 260 269 271 269 265 273 288 271 255 242 210 195 200 211 218 231 245 240 234 221 198 198 205 208 219 233 229 218 218 233 238 239 250 261 264 267 238 189 192 196 211 229 238 246 230 208 191 177 174 175 172 168 164 160 159 158 157 159 161 158 149 139 128 119 112 106 101 94 88 80 74 71 69 70
230 240 248 235 221 227 237 236 241 248 247 249 254 257 259 263 264 281 313 284 217 202 180 184 196 209 214 221 226 228 233 232 225 214 200 200 220 220 211 214 224 232 231 236 252 259 266 288 198 176 187 199 205 219 241 249 231 202 188 181 180 181 178 175 172 170 168 164 164 166 164 154 145 139 132 125 118 111 104 96 89 82 75 72 68 66
229 240 257 233 213 217 235 239 242 249 245 240 244 248 254 259 259 275 312 347 171 168 160 178 196 209 203 209 222 228 234 231 224 218 208 205 214 213 209 215 222 227 230 243 256 257 278 359 125 175 178 186 200 225 242 240 231 209 192 186 185 183 179 178 176 172 168 166 168 170 164 155 149 143 137 132 126 119 110 100 93 87 80 77 72 64
234 240 248 241 229 218 225 236 240 244 247 248 244 246 259 263 260 267 291 311 202 179 191 208 228 230 210 209 218 229 239 228 216 213 210 208 213 219 221 217 217 222 228 245 255 255 266 72 113 152 153 163 195 219 233 234 231 220 202 195 190 184 180 179 176 171 169 169 170 172 168 161 156 151 146 142 138 132 121 109 96 86 79 73 67 61
240 242 244 242 241 233 225 232 235 235 247 255 249 245 259 269 270 271 280 298 298 201 198 217 240 250 243 235 225 234 243 227 213 205 201 207 214 219 230 230 229 234 240 249 250 242 236 186 151 150 150 166 198 211 220 230 234 224 208 202 195 187 185 183 177 173 175 174 172 175 172 167 165 161 156 150 144 137 125 114 99 85 76 67 60 55
241 247 242 237 241 238 227 226 228 233 244 252 255 251 252 264 275 279 279 284 287 266 189 197 227 250 258 254 238 237 236 212 201 195 192 204 215 221 230 229 229 241 248 249 246 244 237 210 189 171 156 167 183 198 212 223 232 223 208 206 199 192 192 190 182 179 180 175 175 180 178 178 176 168 162 155 146 140 129 116 101 84 72 65 60 53
238 244 237 231 239 238 225 222 229 238 243 248 259 257 249 259 272 278 274 268 276 272 201 194 215 239 257 254 241 235 228 207 193 193 198 207 217 224 224 219 224 238 240 238 243 246 217 200 197 175 159 160 167 180 200 213 219 209 203 206 203 198 197 193 186 184 181 176 178 184 185 188 185 174 170 162 153 148 136 120 103 82 63 56 55 53
240 244 239 228 233 238 234 237 240 240 244 251 261 261 262 267 268 271 262 250 254 256 232 211 206 216 260 254 249 244 234 222 206 203 208 211 216 224 225 223 230 236 239 242 245 231 195 193 187 173 166 162 166 179 194 201 201 194 194 199 202 201 197 192 187 185 186 184 183 188 192 196 193 185 179 172 163 157 149 135 110 76 50 40 41 50
242 246 242 228 228 236 237 241 243 240 242 248 252 253 263 267 267 270 250 232 239 234 228 230 223 226 262 260 264 254 231 222 207 199 201 205 211 220 230 238 244 247 248 246 241 221 196 184 175 172 173 167 170 186 195 192 187 187 190 193 199 202 196 192 189 188 193 193 190 196 203 202 198 195 190 184 177 174 177 175 114 37 32 30 30 39
239 242 237 225 225 226 231 239 241 239 235 234 238 243 251 257 266 279 243 217 234 242 211 220 233 239 237 264 279 252 223 219 208 199 196 202 211 217 231 245 252 253 248 236 223 210 193 180 173 174 178 179 182 192 197 190 182 186 189 191 197 200 196 195 195 195 199 198 197 205 209 205 205 208 204 199 195 198 210 229 316 4 18 25 29 35
236 242 241 233 231 221 225 241 241 239 235 228 221 222 243 258 252 280 250 207 218 220 206 213 231 235 220 248 308 250 222 219 217 212 208 216 222 220 226 238 245 250 248 233 218 207 195 185 179 180 183 185 189 196 199 186 176 184 189 191 196 199 200 200 200 203 204 205 210 215 212 211 217 223 223 220 219 224 240 263 291 326 353 15 30 44
235 239 242 239 237 230 229 235 238 239 236 229 211 202 210 179 123 260 254 218 232 235 240 236 231 226 196 114 40 223 202 196 203 211 219 229 231 226 226 232 239 244 238 224 215 207 199 193 190 190 187 185 192 203 206 185 172 180 186 188 195 200 204 205 206 210 212 214 220 221 217 221 230 237 238 237 239 244 254 265 279 301 326 1 28 81
239 230 232 230 228 234 234 226 226 236 237 229 213 207 215 206 181 217 248 200 202 249 247 233 225 211 169 124 101 175 188 180 179 183 198 215 220 224 234 238 242 238 223 211 205 195 193 193 193 197 198 199 204 213 216 197 177 177 182 186 193 200 206 208 211 215 216 216 217 218 219 224 232 238 241 241 243 248 257 268 282 297 317 354 33 130
249 240 234 230 226 237 241 223 216 230 245 224 213 221 237 235 205 203 256 261 191 33 304 204 141 137 160 140 129 173 187 185 189 191 196 204 207 212 229 238 239 232 223 214 194 183 187 191 185 192 204 205 204 210 220 216 196 181 181 187 193 201 207 210 213 215 214 214 216 219 220 223 230 235 239 241 242 244 253 269 283 293 314 5 63 138
250 253 243 238 230 227 235 230 216 223 242 224 215 221 231 245 238 211 234 255 218 52 278 149 112 129 144 139 168 196 187 169 169 181 193 202 205 214 228 232 227 227 230 220 186 178 191 194 184 190 201 201 199 206 213 221 217 196 186 189 196 207 211 209 210 212 213 214 219 222 223 225 230 236 239 240 242 244 252 268 279 283 306 29 82 135
251 255 253 247 224 213 224 239 227 225 236 236 232 229 220 233 237 213 196 222 174 67 224 182 151 147 147 150 184 208 203 177 167 175 190 201 208 224 235 226 211 212 220 208 188 188 196 196 190 193 200 199 199 209 212 213 215 206 196 193 198 212 219 213 209 212 214 216 219 223 226 230 235 238 239 238 239 245 257 271 274 273 293 49 85 126
250 255 257 248 225 213 217 223 224 226 231 236 238 238 234 231 218 194 176 159 158 151 283 187 158 151 137 150 182 212 214 201 201 199 197 203 210 223 228 218 212 216 217 215 207 196 195 201 206 207 207 201 200 210 215 214 213 210 205 199 200 210 219 217 213 213 216 218 220 224 229 233 237 239 238 235 238 248 263 269 266 266 283 57 85 117
243 247 260 253 234 235 232 216 218 220 218 230 240 243 249 253 248 198 195 205 126 168 283 16 131 114 106 155 184 213 221 220 222 217 213 216 218 223 224 219 218 219 222 229 216 194 198 207 214 218 214 206 205 209 213 213 211 210 209 205 205 212 218 217 217 219 221 221 221 224 229 233 237 239 238 236 243 257 265 262 260 264 276 44 73 111
241 227 236 249 222 221 249 222 216 227 228 231 239 242 240 228 214 196 206 221 231 173 182 131 206 335 100 174 196 214 227 228 223 221 221 220 216 216 219 218 215 213 213 212 194 183 194 199 202 209 210 208 208 208 210 211 209 210 211 207 207 214 219 219 220 222 223 223 223 225 230 234 236 239 240 242 250 258 258 254 257 262 266 355 61 116
258 221 216 231 224 209 225 223 216 276 354 345 283 270 257 225 200 185 216 228 229 232 189 153 185 152 134 189 203 216 228 224 215 219 210 198 197 198 204 210 208 209 206 194 182 179 185 192 201 202 200 203 205 204 206 208 207 209 210 207 208 215 221 222 223 224 226 227 227 227 231 234 237 242 246 248 251 250 247 247 250 249 248 277 63 138
239 242 216 224 235 225 229 261 264 276 279 316 21 19 358 320 221 203 214 240 243 269 320 75 127 148 154 185 190 194 205 193 181 192 190 182 187 189 193 195 191 191 190 184 184 187 181 181 190 192 192 198 201 202 204 203 205 209 210 207 208 215 221 222 223 226 228 229 230 230 230 233 239 245 246 245 243 240 239 239 237 232 235 244 219 173
200 312 244 222 232 237 240 249 255 265 261 260 356 20 15 357 327 227 219 217 213 219 221 49 79 165 161 184 191 180 173 171 167 167 172 180 184 185 184 181 181 184 182 179 180 182 177 174 177 180 187 193 192 192 194 195 200 207 208 207 209 217 223 224 226 228 229 231 232 228 228 232 237 239 237 238 241 238 234 231 226 222 224 231 228 205
217 273 345 254 230 257 249 247 244 252 266 301 1 6 1 351 359 11 195 194 191 194 184 135 91 183 183 192 198 182 155 157 162 156 160 176 183 187 182 172 174 177 172 175 186 187 181 176 177 172 172 179 176 175 180 186 192 195 198 205 212 220 224 225 227 228 228 228 226 223 225 229 229 227 226 231 235 231 226 226 226 226 226 232 236 225
230 240 291 335 91 81 246 252 241 244 273 333 358 354 349 347 5 41 164 178 157 169 175 163 145 163 186 194 189 176 159 148 153 157 158 168 182 190 182 164 160 159 154 165 180 180 171 165 169 166 161 167 170 166 168 174 181 183 190 205 216 224 228 226 225 226 225 225 224 223 222 216 211 218 224 229 228 222 222 226 229 234 237 239 238 228
218 234 249 249 240 274 340 303 272 265 303 344 359 347 339 347 9 59 189 230 172 157 150 163 170 161 165 178 175 173 177 172 170 167 158 159 170 178 174 165 166 169 169 172 169 166 163 161 164 164 161 166 168 162 162 168 175 181 190 206 218 227 231 228 229 228 225 227 226 221 215 205 206 220 226 229 229 222 222 231 231 230 231 228 225 220
175 215 237 236 242 257 280 296 289 279 280 275 315 327 326 344 14 65 137 37 199 175 122 144 176 165 150 160 171 172 173 174 177 172 158 156 162 164 163 165 171 173 173 172 166 164 164 160 156 152 151 157 161 158 156 159 163 169 184 201 211 218 215 213 221 221 217 224 222 205 205 213 220 223 219 215 220 220 220 230 231 230 230 226 224 222
204 243 233 224 228 230 236 258 263 255 257 252 263 280 292 320 358 24 20 355 229 204 148 154 169 156 143 158 173 175 171 170 177 176 163 162 161 149 145 149 155 161 165 166 169 170 165 156 149 144 144 150 154 153 150 152 156 161 177 195 204 213 208 200 219 226 211 205 212 205 209 218 227 231 221 203 198 203 207 213 214 215 223 227 235 240
216 232 207 198 206 196 201 205 186 198 239 246 258 263 267 282 312 5 28 22 210 170 158 166 164 144 145 166 172 175 176 178 186 185 170 162 155 142 135 138 144 154 164 169 174 175 170 166 163 159 162 166 165 163 160 156 159 166 180 195 202 214 217 210 223 233 219 203 215 215 214 223 235 238 230 213 197 189 194 205 205 203 208 216 227 239
202 192 168 171 183 180 196 209 210 220 191 179 253 270 268 270 278 306 38 118 145 142 150 167 167 150 153 172 173 172 177 182 189 191 180 166 161 161 160 159 162 169 174 176 181 183 180 180 180 175 175 179 177 175 173 168 167 170 178 194 208 216 221 221 222 228 231 232 228 217 209 222 235 233 228 222 203 184 187 198 199 201 208 215 222 229
211 134 144 156 168 170 188 206 215 221 174 122 80 30 302 284 269 265 258 166 156 150 151 161 161 153 159 179 181 175 177 183 189 195 195 185 180 189 194 193 192 191 189 187 188 190 188 189 192 189 186 188 186 186 189 189 190 190 185 189 211 225 226 229 230 228 230 230 225 218 208 208 222 225 219 214 200 190 191 193 195 202 210 219 226 232
234 240 193 163 183 180 160 174 182 186 132 101 88 88 72 19 167 180 185 169 167 162 157 155 150 148 160 182 191 181 177 184 188 190 197 199 198 202 204 204 204 201 200 199 197 196 194 193 197 199 198 197 195 192 193 194 196 196 189 180 183 199 211 220 221 218 217 216 210 211 213 209 212 220 218 212 204 193 191 194 199 201 208 223 232 239
235 229 219 194 202 260 211 157 148 128 79 82 77 99 136 151 140 126 127 154 169 167 159 156 153 155 165 183 194 183 176 183 188 188 193 198 202 205 203 202 202 200 198 197 198 205 207 204 202 201 200 201 201 200 200 200 197 194 194 188 182 188 199 206 207 203 199 190 173 176 196 203 206 216 218 213 208 199 196 202 203 196 203 226 238 246
266 222 210 197 193 254 213 157 119 83 108 99 89 105 153 169 172 128 101 111 126 135 133 136 148 161 169 187 197 185 175 173 175 180 186 189 194 199 197 194 192 195 197 194 199 215 222 221 216 208 202 197 189 183 186 192 193 190 193 195 193 195 200 201 202 201 198 191 181 178 182 184 189 200 202 198 204 209 207 209 204 195 208 229 238 246
18 192 193 181 170 188 178 155 137 139 132 126 134 141 138 154 181 196 134 111 102 112 117 109 116 122 116 129 177 189 182 174 173 176 178 179 186 195 204 209 204 208 226 233 233 232 229 229 228 223 218 207 184 166 167 175 179 182 189 196 200 203 203 199 201 208 210 206 199 193 188 187 194 204 206 207 214 216 208 200 200 206 217 229 238 246
53 140 185 177 176 187 154 134 135 137 133 142 162 158 141 140 143 156 159 140 129 151 161 136 127 125 114 118 139 161 181 194 197 186 177 180 191 199 207 218 219 223 237 246 250 247 237 231 231 231 230 224 208 186 176 179 182 186 193 199 203 207 205 200 206 221 230 227 223 221 216 209 211 218 224 229 234 236 228 214 213 222 231 238 245 251
343 295 222 190 180 178 142 130 134 131 141 171 170 157 150 145 140 159 173 165 162 194 214 209 207 205 186 174 179 189 195 199 198 188 179 181 187 192 198 205 209 213 218 225 230 229 225 224 227 230 230 227 223 214 209 215 219 216 213 211 213 218 218 214 217 229 236 232 228 231 231 225 225 235 244 248 252 260 264 257 249 249 253 258 261 260
2 79 216 189 182 178 150 121 104 92 147 188 183 173 166 154 146 153 158 151 149 167 216 208 201 207 211 210 215 217 213 208 204 200 201 201 199 201 205 208 209 207 205 208 210 215 228 237 237 235 224 218 219 221 224 232 233 228 225 225 228 234 236 237 238 240 240 231 219 217 224 234 248 260 265 264 264 271 277 277 275 272 269 269 270 268
60 67 47 81 153 161 140 113 100 106 153 187 197 200 188 160 143 145 144 132 134 132 139 164 180 199 210 214 222 222 214 209 209 205 206 211 211 212 216 219 222 225 230 236 234 235 244 244 238 236 226 214 216 222 228 233 233 230 231 233 235 239 242 246 250 251 253 250 243 240 241 244 250 259 265 269 271 274 276 276 279 281 281 279 277 275
63 62 54 89 119 145 146 121 108 117 152 181 210 222 204 170 140 133 137 137 139 137 137 150 169 189 201 206 216 220 208 197 204 206 207 212 214 216 222 228 234 243 249 248 243 242 244 239 234 236 234 229 230 233 236 239 241 243 246 248 249 250 252 254 256 257 256 256 256 256 256 256 256 260 266 270 272 273 273 273 275 277 279 281 281 280
61 60 51 76 94 119 138 122 106 97 142 184 196 192 183 164 138 133 147 149 151 149 146 153 167 176 184 192 207 219 213 201 204 210 210 211 211 212 217 220 223 228 232 234 236 237 237 236 236 237 238 238 242 245 248 249 250 252 255 258 260 260 259 259 259 259 259 258 257 258 260 261 262 263 266 269 270 271 271 272 272 272 273 275 277 278
65 63 38 56 83 106 118 109 93 72 141 170 156 149 160 154 139 143 153 153 153 157 158 161 166 169 175 182 193 209 217 216 222 228 225 217 214 211 209 204 201 202 206 214 223 227 226 231 236 237 238 240 242 247 251 253 255 256 257 260 262 261 262 263 261 260 260 260 259 259 259 260 262 264 265 266 266 267 267 267 268 268 269 270 272 274
72 80 70 73 92 110 107 103 115 146 154 154 153 151 155 151 147 156 166 162 161 168 174 175 174 176 186 197 204 213 221 228 238 246 249 250 252 247 232 216 207 206 206 209 221 230 231 234 240 243 244 246 249 252 254 254 255 256 255 256 257 257 258 259 260 259 259 259 260 260 260 261 261 262 262 262 263 263 263 263 264 264 265 266 268 270
56 55 58 71 76 98 118 126 138 151 151 152 155 156 158 159 161 173 184 184 184 188 193 196 194 193 200 212 222 229 234 241 248 252 255 259 260 254 243 239 243 249 248 246 252 259 259 256 257 258 257 257 257 258 259 259 259 258 257 257 258 258 259 259 259 259 259 259 259 259 260 260 260 260 261 261 261 261 261 262 262 263 264 265 266 267
67 36 16 66 90 98 119 132 148 163 164 163 160 161 168 174 177 184 191 198 202 202 205 211 212 211 217 226 233 237 242 251 255 255 253 253 254 254 253 260 271 276 278 279 276 276 275 273 272 273 272 270 268 265 264 264 262 262 262 262 263 264 264 263 263 261 261 260 260 260 260 259 259 259 259 258 258 258 259 259 260 261 262 263 264 264
97 47 18 74 98 107 126 140 162 182 186 190 180 169 175 184 190 195 199 204 208 209 212 217 219 223 233 242 248 251 253 253 253 253 251 248 251 259 267 274 278 280 281 280 277 278 280 281 280 280 279 276 275 272 270 268 268 267 267 267 267 266 265 265 264 264 263 263 263 262 262 261 261 260 259 259 258 258 258 258 258 259 260 261 261 262
97 103 82 82 89 122 139 147 161 172 185 200 197 184 185 189 194 201 208 211 213 214 216 219 224 238 250 252 251 249 247 248 253 259 264 266 269 274 280 284 285 284 284 284 283 283 284 284 283 282 280 280 278 276 274 273 272 272 272 271 270 269 268 267 267 266 266 265 264 264 264 263 263 263 262 262 262 262 262 262 262 262 262 262 262 262
107 126 108 59 94 133 138 143 150 155 167 188 191 184 188 194 201 209 215 217 218 219 222 226 237 253 260 254 247 244 242 243 252 265 274 279 283 288 292 294 293 290 290 290 290 287 284 283 283 283 282 282 280 278 277 275 274 273 273 273 273 272 270 270 270 269 269 268 267 266 266 266 265 265 265 264 264 264 264 264 265 266 265 265 265 264
135 116 98 14 157 142 141 149 153 147 143 149 178 184 175 187 205 214 218 223 226 228 232 237 246 253 255 252 252 256 256 249 247 258 270 276 283 291 295 294 293 293 293 292 291 290 288 286 286 286 286 286 284 283 281 280 278 278 277 276 276 275 275 274 273 272 271 270 270 269 269 268 268 267 267 266 265 263 263 263 264 265 265 265 266 266
107 125 138 155 144 136 138 152 165 164 147 130 126 174 166 177 201 211 219 228 234 238 242 247 250 247 242 243 249 254 258 258 255 259 267 274 280 286 288 287 289 292 292 291 292 294 294 293 292 291 290 289 288 286 285 284 283 282 281 281 280 279 278 277 276 274 273 272 271 271 270 269 268 267 267 267 266 265 265 264 264 264 264 265 265 265
Height
3080 3080 3079 3077 3077 3079 3081 3082 3083 3084 3086 3086 3086 3086 3086 3085 3084 3083 3081 3081 3084 3083 3082 3084 3086 3089 3092 3092 3093 3093 3096 3096 3095 3098 3100 3100 3101 3102 3104 3108 3110 3110 3109 3106 3106 3110 3113 3116 3119 3122 3125 3126 3126 3126 3126 3126 3126 3126 3126 3127 3128 3129 3130 3131 3132 3133 3135 3137 3139 3142 3143 3145 3147 3148 3149 3149 3150 3150 3151 3151 3150 3150 3150 3150 3149 3149
3079 3077 3075 3075 3077 3079 3080 3082 3083 3084 3084 3084 3085 3084 3083 3083 3080 3080 3078 3077 3080 3080 3078 3082 3086 3087 3089 3091 3091 3092 3094 3094 3092 3096 3099 3099 3100 3102 3105 3107 3105 3103 3103 3104 3107 3112 3115 3116 3118 3122 3124 3123 3124 3125 3125 3125 3125 3126 3126 3127 3128 3129 3130 3131 3133 3134 3135 3137 3139 3141 3143 3145 3147 3147 3147 3148 3148 3148 3149 3149 3150 3150 3150 3150 3149 3149
3077 3074 3073 3075 3077 3079 3079 3081 3082 3083 3083 3083 3083 3083 3081 3079 3078 3078 3076 3073 3075 3076 3075 3080 3084 3086 3087 3089 3090 3090 3092 3094 3095 3097 3098 3099 3100 3103 3104 3101 3100 3100 3100 3103 3110 3116 3117 3116 3118 3121 3122 3120 3122 3124 3124 3125 3125 3126 3126 3126 3128 3129 3130 3131 3133 3135 3137 3138 3140 3141 3143 3145 3146 3146 3146 3146 3147 3148 3148 3149 3149 3149 3149 3149 3149 3149
3074 3071 3072 3075 3076 3077 3078 3079 3081 3081 3081 3081 3081 3081 3079 3077 3078 3080 3076 3072 3071 3073 3075 3080 3083 3084 3086 3087 3088 3090 3091 3093 3095 3097 3099 3100 3099 3100 3098 3096 3098 3098 3098 3103 3111 3115 3115 3116 3117 3118 3120 3120 3122 3124 3124 3124 3125 3125 3126 3126 3127 3129 3130 3132 3134 3136 3137 3139 3140 3142 3143 3144 3145 3145 3145 3146 3147 3148 3148 3148 3149 3149 3149 3149 3149 3149
3071 3069 3071 3074 3074 3076 3076 3076 3079 3079 3079 3079 3079 3079 3077 3075 3078 3080 3078 3075 3073 3073 3076 3080 3082 3083 3085 3086 3087 3089 3090 3091 3093 3095 3100 3100 3096 3096 3096 3094 3095 3095 3099 3106 3110 3113 3115 3116 3116 3116 3119 3121 3123 3124 3124 3124 3125 3125 3126 3127 3128 3130 3131 3133 3134 3136 3137 3139 3140 3142 3143 3143 3144 3145 3145 3146 3147 3148 3148 3148 3148 3149 3149 3149 3149 3149
3070 3068 3071 3074 3073 3074 3075 3075 3076 3077 3077 3077 3077 3077 3076 3074 3077 3079 3079 3080 3079 3077 3076 3079 3081 3081 3083 3085 3086 3088 3089 3090 3091 3093 3099 3097 3093 3096 3096 3092 3093 3095 3101 3106 3109 3113 3115 3116 3117 3116 3118 3120 3122 3123 3123 3124 3124 3125 3126 3127 3128 3130 3132 3133 3135 3136 3137 3138 3140 3142 3143 3143 3144 3144 3145 3146 3147 3147 3148 3148 3148 3148 3149 3149 3149 3148
3069 3068 3070 3072 3072 3073 3073 3073 3074 3075 3076 3075 3075 3076 3076 3074 3076 3079 3079 3080 3081 3078 3077 3079 3081 3081 3081 3083 3084 3086 3087 3087 3088 3092 3096 3093 3091 3096 3095 3091 3093 3095 3099 3104 3109 3112 3114 3116 3117 3116 3118 3119 3120 3122 3122 3123 3124 3124 3126 3127 3129 3130 3131 3133 3134 3136 3137 3138 3140 3141 3143 3143 3144 3144 3144 3145 3146 3147 3147 3148 3148 3148 3148 3148 3148 3148
3067 3067 3068 3070 3071 3070 3071 3071 3072 3074 3074 3073 3074 3076 3075 3074 3075 3077 3078 3078 3079 3079 3078 3078 3080 3081 3080 3081 3082 3085 3085 3085 3087 3090 3092 3090 3090 3094 3092 3091 3094 3096 3098 3103 3108 3110 3113 3115 3115 3116 3118 3118 3119 3121 3121 3122 3123 3124 3125 3127 3129 3130 3131 3133 3134 3136 3137 3138 3140 3141 3142 3143 3143 3144 3144 3145 3146 3146 3147 3147 3148 3148 3148 3148 3148 3148
3066 3066 3066 3068 3069 3069 3069 3070 3071 3073 3073 3072 3073 3074 3074 3074 3074 3075 3077 3077 3078 3079 3078 3078 3080 3081 3079 3079 3080 3083 3084 3085 3086 3087 3087 3088 3090 3090 3089 3091 3094 3096 3098 3102 3106 3109 3111 3112 3113 3115 3116 3117 3118 3119 3120 3121 3122 3123 3124 3126 3128 3130 3131 3132 3134 3135 3136 3138 3140 3141 3141 3142 3143 3143 3144 3145 3145 3146 3146 3147 3147 3148 3148 3148 3148 3148
3065 3065 3065 3067 3067 3067 3068 3069 3070 3072 3071 3071 3073 3073 3073 3074 3073 3074 3075 3076 3077 3078 3077 3078 3079 3080 3079 3078 3080 3081 3081 3083 3086 3084 3083 3086 3088 3088 3089 3092 3095 3096 3098 3101 3105 3108 3109 3110 3111 3113 3115 3116 3116 3117 3118 3119 3120 3122 3124 3126 3128 3129 3130 3131 3132 3134 3135 3137 3139 3140 3141 3142 3142 3143 3144 3145 3145 3145 3146 3147 3147 3147 3148 3148 3147 3147
3062 3064 3064 3064 3064 3065 3067 3068 3069 3070 3070 3071 3072 3073 3073 3073 3073 3073 3073 3074 3076 3076 3076 3077 3078 3080 3079 3078 3079 3079 3078 3081 3083 3080 3081 3085 3086 3087 3089 3091 3095 3097 3098 3101 3104 3106 3107 3109 3110 3112 3113 3114 3114 3116 3117 3118 3119 3121 3122 3125 3127 3128 3129 3130 3132 3133 3135 3136 3138 3139 3141 3141 3142 3143 3143 3144 3144 3145 3146 3146 3147 3147 3147 3147 3147 3147
3060 3061 3063 3063 3063 3064 3065 3066 3067 3067 3068 3070 3071 3072 3073 3072 3071 3071 3071 3073 3074 3074 3075 3076 3078 3079 3079 3078 3078 3078 3077 3080 3079 3078 3081 3083 3085 3087 3088 3090 3094 3095 3096 3099 3102 3105 3107 3108 3110 3111 3112 3112 3113 3115 3116 3117 3118 3119 3121 3123 3125 3127 3128 3129 3131 3132 3134 3135 3137 3138 3140 3141 3142 3142 3143 3144 3144 3144 3145 3145 3146 3146 3146 3146 3146 3146
3059 3059 3061 3062 3062 3063 3064 3064 3065 3065 3066 3068 3069 3071 3072 3071 3072 3072 3071 3071 3072 3073 3074 3075 3077 3077 3077 3078 3078 3077 3077 3079 3078 3078 3081 3082 3083 3087 3088 3089 3093 3093 3094 3098 3102 3105 3108 3109 3110 3110 3110 3112 3113 3115 3116 3117 3118 3119 3120 3122 3124 3126 3127 3129 3131 3132 3133 3135 3136 3138 3139 3140 3141 3141 3142 3143 3143 3143 3144 3144 3145 3145 3145 3145 3146 3146
3058 3058 3059 3060 3060 3061 3063 3062 3063 3064 3064 3066 3067 3069 3070 3071 3074 3075 3072 3070 3071 3072 3073 3074 3075 3075 3076 3077 3077 3076 3077 3079 3078 3078 3081 3082 3084 3087 3087 3088 3092 3091 3093 3098 3102 3106 3109 3110 3110 3110 3110 3112 3114 3116 3117 3117 3118 3119 3120 3122 3124 3126 3127 3129 3130 3131 3133 3134 3135 3137 3138 3139 3139 3140 3141 3141 3142 3142 3143 3144 3144 3144 3145 3145 3145 3145
3057 3056 3056 3058 3058 3059 3060 3060 3061 3063 3064 3064 3065 3067 3068 3069 3072 3073 3072 3071 3071 3071 3071 3072 3073 3074 3075 3076 3076 3076 3076 3078 3079 3078 3080 3082 3085 3087 3085 3086 3088 3089 3093 3098 3102 3105 3107 3108 3109 3110 3111 3112 3114 3116 3117 3118 3118 3119 3121 3122 3124 3125 3127 3129 3130 3131 3132 3133 3134 3135 3136 3137 3137 3138 3139 3140 3141 3141 3142 3143 3143 3144 3144 3144 3144 3144
3055 3054 3054 3056 3056 3056 3058 3059 3060 3062 3063 3064 3064 3066 3066 3066 3068 3070 3071 3070 3070 3070 3070 3071 3072 3073 3075 3076 3077 3076 3076 3077 3078 3079 3080 3082 3084 3085 3084 3084 3086 3088 3093 3098 3101 3103 3105 3107 3109 3110 3111 3112 3114 3117 3118 3119 3119 3120 3121 3122 3123 3125 3126 3128 3129 3130 3131 3131 3132 3133 3134 3135 3135 3136 3137 3138 3139 3140 3141 3142 3143 3143 3143 3143 3143 3144
3053 3052 3053 3054 3054 3054 3056 3058 3059 3060 3061 3062 3063 3064 3065 3065 3066 3068 3070 3069 3069 3071 3071 3070 3072 3073 3075 3077 3077 3076 3076 3077 3077 3079 3080 3081 3083 3084 3083 3084 3086 3088 3092 3097 3100 3103 3105 3106 3108 3109 3110 3111 3114 3117 3118 3119 3119 3119 3120 3121 3123 3124 3125 3126 3127 3128 3129 3129 3130 3131 3132 3133 3134 3134 3135 3137 3138 3139 3140 3141 3142 3143 3143 3142 3143 3143
3052 3051 3051 3052 3052 3053 3055 3057 3058 3059 3061 3061 3062 3063 3063 3065 3065 3065 3068 3069 3070 3072 3070 3069 3070 3072 3073 3075 3076 3075 3076 3078 3078 3079 3080 3079 3080 3082 3082 3084 3086 3089 3091 3095 3099 3102 3103 3105 3106 3107 3108 3110 3113 3116 3117 3117 3117 3118 3119 3120 3121 3122 3123 3124 3125 3126 3127 3127 3128 3129 3130 3131 3132 3133 3134 3135 3137 3138 3139 3140 3141 3142 3142 3142 3142 3143
3052 3051 3049 3050 3051 3053 3055 3056 3056 3058 3059 3060 3061 3062 3062 3063 3063 3064 3066 3068 3070 3071 3070 3068 3069 3071 3072 3073 3074 3075 3076 3078 3079 3079 3079 3079 3079 3080 3081 3083 3086 3088 3090 3092 3095 3098 3101 3102 3104 3105 3107 3109 3112 3114 3115 3116 3116 3116 3117 3118 3119 3119 3121 3122 3123 3124 3124 3125 3126 3127 3128 3129 3130 3132 3133 3135 3136 3137 3138 3140 3141 3142 3142 3142 3142 3142
3051 3050 3049 3049 3051 3052 3053 3054 3055 3056 3058 3059 3060 3060 3061 3062 3062 3063 3065 3066 3068 3070 3071 3072 3072 3072 3072 3073 3073 3074 3075 3077 3079 3078 3078 3079 3080 3081 3082 3083 3085 3087 3089 3090 3092 3096 3098 3100 3101 3103 3106 3108 3110 3111 3113 3113 3114 3114 3114 3115 3116 3116 3117 3119 3120 3121 3121 3122 3124 3124 3126 3127 3129 3131 3133 3134 3136 3137 3138 3140 3141 3141 3141 3141 3142 3142
3047 3047 3048 3049 3050 3051 3053 3054 3055 3056 3057 3058 3058 3059 3060 3060 3061 3062 3063 3064 3066 3069 3071 3074 3074 3072 3072 3073 3073 3073 3074 3076 3077 3077 3077 3078 3079 3080 3081 3082 3084 3086 3087 3089 3091 3093 3095 3097 3099 3101 3103 3105 3107 3109 3110 3110 3111 3111 3111 3111 3113 3114 3115 3116 3117 3117 3118 3119 3121 3122 3123 3125 3128 3130 3132 3134 3135 3136 3138 3139 3140 3140 3141 3141 3141 3142
3046 3046 3047 3048 3048 3050 3053 3054 3053 3053 3055 3056 3057 3058 3058 3058 3059 3061 3063 3063 3064 3067 3069 3070 3072 3072 3072 3072 3072 3073 3074 3076 3078 3078 3078 3079 3079 3080 3081 3082 3083 3085 3087 3088 3089 3091 3092 3094 3096 3098 3100 3102 3104 3106 3106 3107 3108 3108 3107 3108 3110 3111 3112 3113 3114 3115 3116 3117 3119 3120 3122 3124 3126 3128 3131 3132 3134 3136 3137 3138 3139 3139 3140 3140 3141 3141
3045 3046 3046 3046 3047 3049 3051 3052 3051 3051 3053 3054 3055 3056 3056 3056 3058 3059 3061 3063 3063 3066 3068 3068 3069 3072 3071 3070 3070 3071 3073 3075 3077 3079 3079 3079 3080 3080 3081 3082 3083 3084 3086 3087 3088 3089 3090 3091 3093 3095 3097 3099 3101 3103 3104 3106 3106 3106 3106 3107 3108 3109 3110 3111 3113 3114 3115 3116 3118 3119 3120 3122 3124 3126 3128 3131 3133 3135 3136 3137 3138 3138 3139 3139 3140 3141
3045 3046 3045 3045 3046 3047 3048 3050 3051 3051 3052 3053 3054 3055 3056 3056 3057 3056 3057 3060 3062 3065 3067 3069 3071 3072 3071 3070 3069 3071 3073 3075 3077 3079 3080 3080 3081 3081 3082 3082 3083 3084 3085 3087 3087 3087 3088 3090 3092 3093 3095 3098 3100 3102 3104 3106 3106 3106 3107 3108 3108 3109 3109 3110 3112 3113 3113 3115 3116 3118 3119 3120 3122 3124 3127 3129 3131 3133 3134 3136 3136 3137 3138 3139 3139 3140
3045 3046 3046 3045 3046 3047 3048 3049 3051 3052 3053 3054 3055 3055 3055 3055 3056 3056 3056 3058 3060 3062 3065 3068 3071 3071 3070 3070 3071 3073 3075 3077 3078 3080 3081 3082 3083 3082 3082 3083 3083 3084 3086 3087 3087 3087 3088 3089 3090 3091 3093 3096 3098 3100 3102 3103 3104 3106 3107 3107 3107 3106 3106 3107 3109 3109 3111 3112 3113 3115 3116 3117 3120 3122 3125 3127 3128 3130 3133 3134 3135 3136 3137 3138 3138 3139
3045 3045 3046 3046 3047 3048 3049 3049 3050 3051 3053 3054 3055 3054 3054 3054 3055 3056 3057 3058 3059 3061 3062 3063 3067 3069 3069 3070 3071 3073 3075 3076 3078 3079 3080 3082 3083 3082 3082 3083 3084 3085 3085 3086 3087 3087 3087 3088 3090 3091 3093 3095 3097 3099 3101 3101 3102 3104 3105 3104 3104 3103 3105 3107 3107 3108 3109 3110 3112 3114 3116 3118 3120 3122 3124 3126 3127 3129 3131 3133 3134 3135 3136 3136 3137 3138
3044 3045 3046 3047 3048 3048 3048 3049 3049 3051 3052 3054 3055 3054 3054 3055 3055 3055 3056 3058 3059 3061 3062 3062 3063 3065 3068 3070 3072 3075 3075 3075 3076 3077 3078 3080 3081 3082 3083 3084 3085 3085 3086 3086 3087 3087 3087 3089 3090 3092 3093 3094 3096 3098 3100 3100 3101 3102 3103 3104 3104 3105 3107 3108 3108 3109 3110 3112 3115 3117 3119 3121 3122 3122 3123 3125 3127 3129 3131 3132 3132 3133 3134 3135 3135 3136
3043 3045 3046 3047 3048 3048 3048 3049 3049 3051 3052 3053 3054 3055 3054 3055 3056 3057 3057 3059 3059 3060 3062 3063 3063 3064 3067 3070 3073 3074 3074 3074 3075 3076 3077 3078 3081 3083 3084 3084 3085 3086 3087 3089 3090 3090 3089 3090 3091 3092 3093 3095 3096 3097 3099 3100 3101 3102 3103 3104 3105 3106 3107 3106 3107 3107 3109 3112 3116 3118 3119 3120 3119 3118 3120 3123 3126 3128 3130 3131 3131 3132 3133 3134 3134 3134
3042 3044 3045 3046 3047 3048 3049 3049 3049 3050 3051 3052 3054 3055 3054 3055 3057 3059 3059 3059 3060 3059 3060 3064 3065 3065 3067 3070 3072 3072 3072 3073 3075 3075 3077 3078 3080 3082 3082 3083 3084 3086 3088 3090 3092 3092 3092 3092 3092 3093 3094 3095 3096 3097 3099 3100 3101 3102 3104 3104 3104 3105 3106 3106 3106 3106 3108 3111 3115 3117 3117 3116 3116 3117 3119 3120 3123 3126 3128 3129 3130 3131 3132 3133 3134 3134
3042 3043 3044 3045 3046 3047 3048 3048 3048 3049 3051 3053 3054 3054 3054 3055 3058 3060 3060 3059 3059 3059 3059 3061 3063 3064 3067 3069 3070 3071 3073 3073 3074 3075 3077 3078 3080 3081 3081 3082 3083 3087 3090 3091 3092 3093 3093 3092 3092 3092 3093 3093 3094 3095 3097 3099 3101 3103 3105 3105 3105 3106 3106 3106 3106 3108 3110 3112 3114 3115 3116 3116 3116 3118 3120 3121 3123 3126 3127 3128 3129 3130 3131 3132 3132 3133
3041 3042 3043 3044 3045 3046 3047 3048 3049 3050 3052 3053 3054 3054 3054 3055 3058 3060 3061 3059 3059 3059 3059 3059 3060 3062 3065 3068 3069 3071 3072 3073 3074 3075 3076 3078 3080 3081 3082 3083 3084 3087 3089 3091 3092 3092 3091 3091 3092 3092 3092 3093 3093 3094 3095 3097 3099 3102 3104 3105 3105 3106 3106 3106 3107 3108 3110 3112 3113 3114 3115 3115 3115 3117 3119 3121 3124 3125 3126 3126 3127 3128 3129 3130 3130 3131
3041 3042 3043 3043 3045 3046 3048 3048 3049 3050 3052 3053 3054 3055 3055 3055 3056 3058 3060 3060 3058 3058 3058 3058 3058 3061 3064 3066 3068 3070 3072 3073 3073 3074 3075 3076 3078 3079 3080 3082 3083 3085 3087 3089 3090 3091 3090 3090 3090 3091 3092 3093 3094 3095 3096 3097 3098 3099 3101 3103 3104 3105 3106 3106 3107 3108 3109 3111 3112 3113 3115 3116 3116 3117 3119 3119 3121 3123 3124 3125 3126 3127 3127 3128 3128 3128
3042 3042 3043 3043 3045 3047 3048 3048 3048 3050 3052 3053 3054 3055 3056 3056 3056 3056 3059 3060 3059 3058 3058 3057 3059 3062 3064 3066 3067 3068 3071 3073 3073 3074 3074 3075 3076 3077 3078 3080 3081 3083 3085 3086 3088 3089 3090 3090 3090 3091 3091 3092 3094 3095 3096 3097 3098 3098 3098 3099 3102 3104 3104 3104 3105 3106 3107 3109 3111 3112 3113 3115 3116 3117 3117 3118 3120 3122 3124 3125 3125 3125 3125 3126 3126 3126
3041 3042 3043 3044 3045 3047 3048 3047 3048 3051 3053 3055 3055 3056 3057 3057 3056 3056 3058 3059 3059 3059 3059 3059 3061 3063 3064 3065 3066 3065 3067 3071 3073 3074 3075 3075 3075 3075 3076 3078 3079 3081 3083 3085 3087 3088 3089 3090 3091 3091 3091 3092 3093 3094 3095 3096 3097 3098 3097 3097 3098 3099 3100 3100 3101 3102 3104 3106 3108 3110 3111 3112 3114 3114 3115 3116 3119 3120 3122 3124 3124 3122 3123 3124 3124 3124
3040 3041 3043 3044 3045 3047 3048 3048 3050 3054 3055 3056 3056 3055 3057 3058 3057 3057 3058 3059 3059 3060 3061 3061 3063 3065 3065 3065 3066 3065 3066 3069 3072 3073 3074 3075 3075 3076 3077 3077 3078 3080 3083 3085 3087 3088 3090 3091 3092 3092 3092 3093 3093 3094 3095 3096 3096 3097 3097 3096 3096 3096 3097 3098 3098 3100 3102 3103 3105 3107 3108 3109 3111 3112 3113 3115 3117 3118 3120 3121 3120 3119 3120 3122 3122 3122
3040 3040 3041 3043 3045 3046 3047 3048 3051 3054 3054 3055 3055 3054 3055 3056 3057 3057 3058 3060 3061 3062 3062 3062 3064 3066 3067 3066 3067 3068 3068 3070 3072 3073 3074 3075 3077 3078 3079 3080 3080 3082 3084 3086 3087 3088 3089 3090 3092 3092 3093 3094 3095 3095 3096 3096 3096 3096 3096 3096 3096 3097 3097 3098 3099 3100 3101 3103 3103 3104 3105 3107 3108 3110 3112 3114 3115 3116 3116 3117 3117 3118 3119 3120 3120 3121
3040 3040 3041 3042 3045 3046 3047 3048 3050 3052 3053 3054 3054 3054 3054 3055 3056 3057 3058 3060 3061 3062 3063 3064 3065 3066 3067 3068 3069 3069 3070 3071 3072 3073 3074 3076 3077 3078 3079 3081 3082 3083 3085 3086 3087 3088 3089 3090 3092 3092 3093 3094 3095 3096 3097 3097 3097 3098 3098 3098 3098 3098 3099 3100 3101 3102 3102 3103 3104 3105 3105 3106 3108 3109 3111 3112 3114 3113 3113 3114 3116 3117 3118 3118 3118 3119
3040 3040 3041 3042 3044 3046 3047 3048 3050 3052 3053 3053 3053 3054 3055 3056 3056 3056 3058 3060 3061 3062 3063 3064 3065 3067 3067 3068 3069 3070 3070 3072 3073 3074 3075 3076 3077 3078 3079 3080 3080 3082 3084 3085 3086 3087 3088 3089 3090 3091 3092 3093 3094 3095 3097 3098 3098 3099 3100 3100 3100 3100 3101 3102 3103 3104 3104 3104 3105 3105 3106 3106 3108 3109 3110 3111 3111 3111 3111 3112 3113 3114 3115 3115 3115 3116
3039 3040 3041 3042 3044 3045 3046 3048 3050 3051 3052 3053 3053 3054 3055 3055 3055 3056 3057 3060 3061 3061 3062 3064 3065 3067 3067 3067 3068 3069 3070 3071 3072 3074 3075 3076 3077 3078 3079 3079 3080 3081 3082 3084 3085 3086 3087 3088 3089 3090 3091 3092 3093 3094 3095 3096 3096 3097 3098 3099 3099 3100 3101 3101 3103 3103 3104 3104 3104 3105 3106 3107 3107 3108 3108 3108 3108 3108 3109 3109 3109 3110 3111 3111 3111 3112
3039 3040 3041 3042 3043 3044 3045 3047 3049 3051 3052 3052 3053 3053 3054 3055 3055 3056 3058 3060 3060 3060 3061 3062 3064 3066 3066 3066 3067 3068 3069 3070 3071 3072 3073 3075 3076 3076 3077 3078 3079 3080 3081 3082 3084 3085 3086 3086 3087 3088 3089 3090 3091 3092 3093 3093 3094 3095 3095 3096 3097 3098 3099 3099 3100 3101 3102 3102 3103 3104 3105 3106 3106 3106 3106 3106 3106 3106 3106 3106 3106 3106 3106 3107 3107 3107
3039 3040 3041 3042 3043 3044 3045 3046 3049 3051 3051 3052 3052 3052 3053 3055 3056 3056 3058 3059 3059 3059 3060 3061 3062 3064 3065 3065 3066 3067 3068 3069 3070 3071 3072 3073 3074 3075 3076 3077 3078 3079 3080 3081 3082 3083 3084 3085 3085 3086 3087 3088 3089 3090 3090 3091 3091 3092 3092 3093 3094 3095 3096 3096 3097 3097 3098 3099 3099 3100 3101 3102 3102 3102 3102 3103 3103 3103 3103 3103 3102 3102 3102 3102 3102 3102
3040 3041 3042 3042 3043 3045 3045 3047 3049 3051 3051 3051 3052 3052 3052 3054 3056 3056 3057 3058 3058 3059 3060 3061 3062 3063 3065 3066 3066 3066 3067 3068 3069 3070 3071 3073 3074 3075 3076 3077 3077 3078 3078 3079 3081 3082 3082 3083 3084 3084 3085 3086 3086 3087 3087 3088 3089 3089 3089 3090 3090 3091 3092 3093 3093 3093 3094 3095 3095 3096 3096 3097 3097 3098 3098 3098 3098 3098 3099 3099 3099 3099 3099 3099 3098 3098
3041 3041 3042 3043 3044 3045 3046 3047 3050 3051 3051 3051 3052 3052 3053 3054 3056 3056 3056 3057 3059 3059 3060 3061 3061 3063 3064 3065 3065 3066 3066 3067 3068 3070 3071 3073 3074 3075 3075 3076 3076 3077 3078 3079 3079 3080 3081 3082 3082 3082 3083 3084 3084 3085 3085 3085 3086 3086 3087 3087 3087 3088 3088 3089 3089 3090 3090 3090 3091 3091 3092 3092 3093 3093 3094 3094 3094 3094 3094 3095 3095 3095 3095 3095 3094 3094
3042 3042 3043 3043 3044 3045 3046 3048 3051 3051 3051 3051 3052 3053 3053 3055 3056 3056 3056 3057 3058 3059 3060 3060 3061 3062 3064 3064 3065 3066 3066 3067 3068 3070 3071 3071 3072 3072 3073 3074 3074 3075 3076 3078 3078 3079 3079 3080 3080 3080 3081 3082 3082 3082 3082 3083 3083 3083 3084 3084 3084 3084 3085 3085 3086 3086 3086 3086 3087 3087 3087 3088 3088 3089 3089 3089 3089 3089 3089 3090 3090 3090 3091 3090 3090 3090
3042 3043 3043 3044 3045 3045 3046 3047 3049 3050 3051 3052 3052 3053 3054 3055 3056 3056 3057 3057 3057 3058 3060 3061 3062 3063 3064 3064 3065 3066 3067 3067 3068 3069 3069 3069 3069 3070 3071 3071 3072 3073 3074 3075 3076 3076 3077 3077 3077 3078 3078 3079 3080 3080 3080 3080 3080 3080 3080 3080 3081 3081 3081 3082 3082 3082 3082 3083 3083 3083 3083 3083 3084 3084 3084 3084 3085 3085 3085 3085 3085 3085 3085 3085 3085 3085
3043 3043 3044 3044 3045 3046 3047 3049 3050 3051 3051 3052 3053 3053 3054 3055 3056 3057 3057 3057 3058 3059 3060 3061 3062 3062 3063 3064 3065 3066 3066 3067 3067 3067 3068 3068 3067 3068 3069 3069 3070 3071 3072 3073 3074 3074 3074 3074 3074 3075 3075 3076 3076 3076 3076 3076 3076 3076 3076 3077 3077 3078 3078 3078 3078 3078 3078 3078 3078 3078 3078 3078 3078 3078 3078 3078 3078 3079 3079 3079 3079 3079 3079 3079 3079 3079
3044 3044 3044 3045 3045 3046 3048 3050 3051 3051 3051 3052 3053 3054 3055 3055 3056 3057 3058 3058 3059 3060 3060 3061 3062 3063 3063 3064 3065 3065 3065 3065 3065 3065 3065 3066 3066 3066 3067 3068 3069 3069 3070 3071 3071 3071 3071 3071 3071 3072 3072 3072 3072 3072 3072 3072 3071 3071 3072 3072 3072 3073 3072 3072 3072 3072 3072 3072 3072 3072 3072 3072 3072 3072 3072 3072 3072 3073 3073 3073 3072 3072 3072 3072 3072 3071
3045 3045 3044 3045 3046 3047 3048 3050 3051 3051 3051 3052 3053 3055 3055 3056 3056 3057 3058 3059 3060 3060 3060 3061 3062 3062 3063 3063 3064 3064 3064 3064 3063 3063 3062 3063 3063 3064 3065 3066 3067 3067 3067 3067 3068 3069 3068 3068 3068 3067 3067 3067 3068 3068 3068 3067 3067 3067 3066 3066 3067 3067 3067 3066 3066 3066 3066 3066 3066 3065 3065 3065 3065 3065 3066 3066 3066 3066 3066 3066 3066 3066 3066 3065 3064 3064
3045 3045 3045 3046 3046 3047 3049 3050 3050 3050 3051 3052 3053 3054 3055 3056 3056 3057 3057 3058 3059 3060 3060 3061 3061 3062 3061 3061 3061 3062 3062 3063 3062 3061 3060 3060 3060 3061 3063 3063 3063 3064 3064 3064 3064 3065 3065 3064 3064 3063 3063 3063 3063 3063 3063 3063 3062 3062 3062 3061 3061 3061 3061 3061 3061 3060 3060 3060 3059 3059 3059 3059 3059 3059 3059 3060 3060 3060 3060 3060 3059 3059 3059 3059 3058 3057
3045 3045 3046 3046 3046 3047 3049 3050 3050 3050 3050 3052 3053 3054 3055 3055 3055 3055 3056 3056 3057 3058 3059 3060 3061 3061 3060 3059 3059 3059 3060 3061 3061 3060 3059 3059 3059 3059 3060 3060 3060 3060 3060 3060 3060 3060 3060 3060 3060 3060 3059 3059 3059 3058 3058 3058 3058 3058 3057 3057 3057 3056 3056 3056 3055 3055 3054 3054 3053 3053 3053 3053 3053 3053 3053 3053 3054 3054 3054 3054 3053 3053 3052 3052 3052 3051
3046 3046 3046 3046 3047 3048 3049 3050 3050 3050 3050 3051 3052 3053 3054 3054 3054 3055 3055 3056 3056 3056 3057 3058 3059 3059 3059 3058 3057 3057 3057 3058 3059 3059 3058 3057 3058 3059 3058 3058 3058 3058 3058 3058 3057 3057 3057 3057 3057 3056 3056 3055 3055 3054 3054 3054 3054 3053 3053 3053 3052 3052 3051 3051 3050 3049 3049 3048 3048 3048 3047 3047 3047 3048 3048 3047 3047 3048 3048 3048 3049 3048 3047 3046 3046 3046